Location: Cantosnioc
(13.5847°S, 72.3511°W)
Time: 20:38:28
(UTC+00:00)

Daily predictions for brighter satellites

Satellite Brightness Start Highest point End
(mag) Time Altitude Azimuth Time Altitude Azimuth Time Altitude Azimuth
Cosmos 1464 Rocket 4.3 23:12:11 10° N 23:18:18 76° W 23:24:31 10° S
Okean-O 2.7 23:16:34 10° S 23:21:02 85° W 23:25:28 10° NNW
Centaur D-1AR AC-48 2.0 23:19:34 10° WNW 23:23:11 89° NNE 23:30:30 10° ESE
GPS 2-14 Rocket1 2.5 23:23:58 10° WNW 23:27:45 87° SSW 23:31:37 10° ESE
ATLAS 5 CENTAUR R/B 2.9 23:22:34 10° N 23:29:21 51° ENE 23:36:10 10° SE
SeaSat 1 4.0 23:27:43 10° ESE 23:30:21 14° ENE 23:32:58 10° NE
ARIANE 3 DEB 4.3 23:27:52 10° WNW 23:31:49 42° NNE 23:39:56 11° ENE
Cosmos 2084 3.7 23:29:42 10° NNW 23:33:48 71° WSW 23:37:57 10° SSE
Cosmos 1315 Rocket 2.7 23:31:30 10° S 23:35:29 76° E 23:39:23 10° N
CZ-3 Stage 3 2.7 23:32:50 10° WSW 23:36:46 73° NNW 23:39:18 13° NE
Cosmos 2082 3.7 23:33:30 10° N 23:39:01 60° ENE 23:44:38 10° SSE
Meteor 2-6 Rocket 4.2 23:33:38 10° S 23:39:28 71° E 23:45:06 10° NNE
CSL-04 Debris 4.4 23:37:26 10° SSE 23:42:45 48° ENE 23:47:59 10° N
Cosmos 494 Rocket 4.2 23:38:04 10° SSW 23:43:14 72° WNW 23:48:25 10° N
Cosmos 1269 Rocket 4.1 23:39:49 10° SSW 23:45:09 86° WNW 23:50:26 10° N
CZ-2D R/B 4.0 23:42:31 10° SE 23:45:58 30° E 23:49:24 10° NNE
Cosmos 1812 3.8 23:42:57 10° SSE 23:46:13 26° E 23:48:07 18° NE
Envisat 3.7 23:41:32 10° S 23:46:32 58° WSW 23:51:30 10° NNW
Cosmos 1707 Rocket 3.9 23:48:42 10° S 23:53:01 67° W 23:57:20 10° N
GPS 2-18 Rocket1 3.1 23:49:45 10° W 23:53:24 62° NNW 23:55:24 24° NE
SL-4 R/B 2.6 23:51:50 10° SSW 23:55:01 32° SE 23:56:26 23° E
Cosmos 2056 Rocket 4.1 23:50:20 10° NNE 23:55:05 35° E 23:59:56 10° SE
